Weather History for NZAA - November, 2013

Change the Weather History Date:

Wednesday, November 27, 2013

  Actual Average Record
Temperature  
Mean Temperature 66 °F -  
Max Temperature 73 °F 66 °F 73 °F (2013)
Min Temperature 60 °F 54 °F 46 °F (2004)
Cooling Degree Days 2    
Growing Degree Days 16 (Base 50)    
Moisture  
Dew Point 61 °F    
Average Humidity 86    
Maximum Humidity 100    
Minimum Humidity 61    
Precipitation  
Precipitation 0.00 in - - ()
Sea Level Pressure  
Sea Level Pressure 29.72 in    
Wind  
Wind Speed 5 mph ()    
Max Wind Speed 16 mph    
Max Gust Speed -    
Visibility 6.2 miles    
Events Rain    
Averages and records for this station are not official NWS values.
T = Trace of Precipitation, MM = Missing Value Source: Averaged Metar Reports

Daily Weather History Graph

Daily Weather History Graph

Search for Another Location

Airport or City:

Trip Planner

Search our weather history database for the weather conditions in past years. The results will help you decide how hot, cold, wet, or windy it might be!

Date:

Astronomy

Nov. 27, 2013 Rise Set
Actual Time 5:56 AM NZDT 8:21 PM NZDT
Civil Twilight 5:26 AM NZDT 8:50 PM NZDT
Nautical Twilight 4:49 AM NZDT 9:27 PM NZDT
Astronomical Twilight 4:09 AM NZDT 10:08 PM NZDT
Moon 1:57 AM NZDT (11/27) 2:06 PM NZDT (11/27)
Length of Visible Light 15h 24m
Length of Day
14h 24m
Last Quarter, 39% of the Moon is Illuminated
Nov 27
Last Quarter
Dec 3
New
Dec 10
First Quarter
Dec 17
Full
Dec 26
Last Quarter

Hourly Weather History & Observations

Time (NZDT) Temp. Dew Point Humidity Pressure Visibility Wind Dir Wind Speed Gust Speed Precip Events Conditions
12:00 AM 62.6 °F 59.0 °F 88% 29.74 in 6.2 mi North 3.5 mph - N/A   Unknown
12:30 AM 64.4 °F 60.8 °F 88% 29.74 in 6.2 mi North 4.6 mph - N/A   Unknown
1:00 AM 62.6 °F 59.0 °F 88% 29.74 in 6.2 mi North 3.5 mph - N/A   Unknown
1:30 AM 62.6 °F 60.8 °F 94% 29.74 in 6.2 mi North 4.6 mph - N/A   Unknown
2:00 AM 62.6 °F 59.0 °F 88% 29.74 in 6.2 mi East 4.6 mph - N/A   Unknown
2:30 AM 60.8 °F 59.0 °F 94% 29.74 in 6.2 mi ENE 3.5 mph - N/A   Unknown
3:00 AM 60.8 °F 59.0 °F 94% 29.74 in 6.2 mi NE 3.5 mph - N/A   Unknown
3:30 AM 60.8 °F 59.0 °F 94% 29.74 in 6.2 mi NE 3.5 mph - N/A   Unknown
4:00 AM 60.8 °F 59.0 °F 94% 29.74 in 6.2 mi NNE 3.5 mph - N/A   Unknown
4:30 AM 62.6 °F 60.8 °F 94% 29.74 in 6.2 mi North 2.3 mph - N/A   Unknown
5:00 AM 62.6 °F 60.8 °F 94% 29.74 in 6.2 mi ENE 2.3 mph - N/A   Unknown
5:30 AM 62.6 °F 60.8 °F 94% 29.74 in 6.2 mi East 2.3 mph - N/A   Unknown
6:00 AM 62.6 °F 60.8 °F 94% 29.74 in 6.2 mi SE 2.3 mph - N/A   Unknown
6:30 AM 60.8 °F 59.0 °F 94% 29.74 in 6.2 mi ENE 2.3 mph - N/A   Unknown
7:00 AM 62.6 °F 60.8 °F 94% 29.74 in 6.2 mi NE 1.2 mph - N/A   Unknown
7:30 AM 64.4 °F 60.8 °F 88% 29.77 in 6.2 mi East 3.5 mph - N/A   Unknown
8:00 AM 66.2 °F 60.8 °F 83% 29.77 in 6.2 mi East 3.5 mph - N/A   Partly Cloudy
8:30 AM 68.0 °F 62.6 °F 83% 29.77 in 6.2 mi East 4.6 mph - N/A   Unknown
9:00 AM 69.8 °F 62.6 °F 78% 29.77 in 6.2 mi ENE 5.8 mph - N/A   Mostly Cloudy
9:30 AM 69.8 °F 62.6 °F 78% 29.77 in 6.2 mi ENE 6.9 mph - N/A   Mostly Cloudy
10:00 AM 71.6 °F 60.8 °F 69% 29.77 in 6.2 mi NE 10.4 mph - N/A   Mostly Cloudy
11:30 AM 73.4 °F 59.0 °F 61% 29.74 in 6.2 mi NE 12.7 mph - N/A   Overcast
12:00 PM 73.4 °F 59.0 °F 61% 29.74 in 6.2 mi NE 11.5 mph - N/A   Scattered Clouds
12:30 PM 73.4 °F 60.8 °F 65% 29.74 in 6.2 mi NE 13.8 mph - N/A   Mostly Cloudy
1:00 PM 73.4 °F 62.6 °F 69% 29.74 in 6.2 mi ENE 13.8 mph - N/A   Partly Cloudy
1:30 PM 71.6 °F 60.8 °F 69% 29.74 in 6.2 mi ENE 13.8 mph - N/A   Mostly Cloudy
2:00 PM 71.6 °F 62.6 °F 73% 29.74 in 6.2 mi ENE 12.7 mph - N/A Rain Light Rain
2:30 PM 71.6 °F 62.6 °F 73% 29.71 in 6.2 mi ENE 11.5 mph - N/A Rain Light Rain Showers
3:00 PM 69.8 °F 62.6 °F 78% 29.71 in 6.2 mi ENE 16.1 mph - N/A   Mostly Cloudy
3:30 PM 68.0 °F 62.6 °F 83% 29.68 in 6.2 mi ENE 16.1 mph - N/A Rain Light Rain Showers
4:00 PM 68.0 °F 62.6 °F 83% 29.71 in 6.2 mi ENE 13.8 mph - N/A Rain Light Rain
4:30 PM 69.8 °F 62.6 °F 78% 29.71 in 6.2 mi ENE 9.2 mph - N/A   Mostly Cloudy
5:00 PM 69.8 °F 60.8 °F 73% 29.71 in 6.2 mi NE 5.8 mph - N/A   Mostly Cloudy
5:30 PM 68.0 °F 62.6 °F 83% 29.68 in 6.2 mi NNE 8.1 mph - N/A   Light Drizzle
6:00 PM 66.2 °F 62.6 °F 88% 29.68 in 6.2 mi NE 10.4 mph - N/A Rain Light Rain Showers
6:30 PM 66.2 °F 62.6 °F 88% 29.71 in 6.2 mi NE 4.6 mph - N/A Rain Light Rain Showers
7:00 PM 66.2 °F 64.4 °F 94% 29.71 in 6.2 mi NE 4.6 mph - N/A Rain Light Rain
7:30 PM 66.2 °F 64.4 °F 94% 29.71 in 6.2 mi NNE 6.9 mph - N/A Rain Light Rain
8:00 PM 64.4 °F 64.4 °F 100% 29.68 in 6.2 mi NNE 6.9 mph - N/A Rain Light Rain
8:30 PM 64.4 °F 64.4 °F 100% 29.68 in 6.2 mi NE 4.6 mph - N/A Rain Light Rain
9:00 PM 64.4 °F 62.6 °F 94% 29.68 in 6.2 mi NE 5.8 mph - N/A Rain Light Rain
9:30 PM 64.4 °F 62.6 °F 94% 29.65 in 6.2 mi ENE 1.2 mph - N/A Rain Light Rain
10:00 PM 64.4 °F 62.6 °F 94% 29.65 in 6.2 mi SSW 1.2 mph - N/A Rain Light Rain
10:30 PM 64.4 °F 62.6 °F 94% 29.65 in 6.2 mi SSE 5.8 mph - N/A Rain Light Rain
11:00 PM 64.4 °F 60.8 °F 88% 29.62 in 6.2 mi SE 11.5 mph - N/A Rain Light Rain
11:30 PM 62.6 °F 60.8 °F 94% 29.59 in 6.2 mi SE 16.1 mph - N/A   Light Drizzle